الكل
Fisher County Airport (Rotan/Roby, TX) 56F حالة الطقس
There is no TAF data available at 56F or any nearby airports.
There is no METAR data available at 56F. Showing METAR data for KSWW (25 mi جنوب).
محفوظات أحدث تقرير روتيني عن حالة الطقس من أجل الطيران (الميتار) SWW ( لا توجد بيانات لـ56F)
| Date | Time (CDT) | Flight Rules | Wind Dir. | Speed | Type | Height AGL (ft) | Visibility | Temp (°C) | Temp (°F) | Dew Point (°C) | Dew Point (°F) | Rel. Humid. | Pressure | Density Altitude | Remarks |
|---|---|---|---|---|---|---|---|---|---|---|---|---|---|---|---|
| 02-سبت | 08:55 | VFR | 180° | 8 kt | 10 miles | 28° | 82° | 16° | 60° | 47% | 30.09 in Hg | 4,244 ft | |||
| 02-سبت | 08:35 | VFR | 170° | 8 kt | 10 miles | 27° | 80° | 16° | 60° | 51% | 30.09 in Hg | 4,124 ft | |||
| 02-سبت | 08:15 | VFR | 180° | 8 kt | 10 miles | 26° | 78° | 16° | 60° | 54% | 30.09 in Hg | 4,004 ft | |||
| 02-سبت | 07:55 | VFR | 170° | 8 kt | 10 miles | 25° | 77° | 16° | 60° | 58% | 30.08 in Hg | 3,894 ft | |||
| 02-سبت | 07:15 | VFR | 170° | 6 kt | 10 miles | 25° | 77° | 15° | 59° | 56% | 30.07 in Hg | 3,904 ft | |||
| 02-سبت | 06:55 | VFR | 170° | 8 kt | 10 miles | 25° | 77° | 15° | 59° | 55% | 30.07 in Hg | 3,904 ft | |||
| 02-سبت | 06:35 | VFR | 160° | 9 kt | 10 miles | 25° | 77° | 15° | 59° | 55% | 30.06 in Hg | 3,914 ft | |||
| 02-سبت | 06:15 | VFR | 160° | 9 kt | 10 miles | 25° | 77° | 15° | 59° | 54% | 30.06 in Hg | 3,914 ft | |||
| 02-سبت | 05:55 | VFR | 160° | 8 kt | 10 miles | 25° | 77° | 15° | 59° | 53% | 30.06 in Hg | 3,914 ft | |||
| 02-سبت | 05:35 | VFR | 170° | 6 kt | 10 miles | 25° | 77° | 15° | 59° | 52% | 30.06 in Hg | 3,914 ft | |||
| 02-سبت | 05:15 | VFR | 170° | 8 kt | 10 miles | 26° | 78° | 15° | 59° | 52% | 30.06 in Hg | 4,034 ft | |||
| 02-سبت | 04:55 | VFR | 160° | 9 kt | 10 miles | 26° | 78° | 15° | 59° | 51% | 30.06 in Hg | 4,034 ft | |||
| 02-سبت | 04:35 | VFR | 170° | 8 kt | 10 miles | 26° | 78° | 15° | 59° | 50% | 30.06 in Hg | 4,034 ft | |||
| 02-سبت | 04:15 | VFR | 160° | 6 kt | 10 miles | 26° | 78° | 15° | 59° | 49% | 30.06 in Hg | 4,034 ft | |||
| 02-سبت | 03:55 | VFR | 150° | 6 kt | 10 miles | 26° | 78° | 14° | 57° | 48% | 30.06 in Hg | 4,034 ft | |||
| 02-سبت | 03:35 | VFR | 150° | 6 kt | 10 miles | 27° | 80° | 15° | 59° | 48% | 30.06 in Hg | 4,154 ft | |||
| 02-سبت | 03:15 | VFR | 150° | 6 kt | 10 miles | 27° | 80° | 14° | 57° | 47% | 30.06 in Hg | 4,154 ft | |||
| 02-سبت | 02:55 | VFR | 140° | 4 kt | Clear |
10 miles | 27° | 80° | 14° | 57° | 45% | 30.06 in Hg | 4,154 ft | ||
| 02-سبت | 02:35 | VFR | 140° | 5 kt | 10 miles | 28° | 82° | 14° | 57° | 44% | 30.06 in Hg | 4,274 ft | |||
| 02-سبت | 02:15 | VFR | 170° | 6 kt | 10 miles | 28° | 82° | 14° | 57° | 41% | 30.06 in Hg | 4,274 ft | |||
| 02-سبت | 01:55 | VFR | 160° | 9 kt | 10 miles | 28° | 82° | 13° | 55° | 40% | 30.06 in Hg | 4,274 ft | |||
| 02-سبت | 01:15 | VFR | 160° | 9 kt | 10 miles | 28° | 82° | 12° | 53° | 37% | 30.06 in Hg | 4,274 ft | |||
| 02-سبت | 00:55 | VFR | 160° | 8 kt | 10 miles | 28° | 82° | 12° | 53° | 37% | 30.06 in Hg | 4,274 ft | |||
| 02-سبت | 00:35 | VFR | 160° | 8 kt | 10 miles | 29° | 84° | 12° | 53° | 35% | 30.06 in Hg | 4,394 ft |
تسجيل الدخول
| مُتصفحك غير مُدعَّم. قم بترقية متصفحك |
